DW8795 Weather Reports


time (UTC)temp
F
wind
direction
speed
knots
gust
knots
rain 1hr
in
rain 24hr
in
rain mn
in
humidity
%
barometer
mb
20260505064518 55 85 0.0 0.0 0.00 0.00 0.00 71 1011.4
20260505063033 56 84 0.0 0.0 0.00 0.00 0.00 77 1011.4
20260505061508 57 84 0.0 0.0 0.00 0.00 0.00 79 1011.5
20260505060010 57 84 0.0 0.0 0.00 0.00 0.00 80 1011.4
20260505054516 58 83 0.0 0.0 0.00 0.00 0.00 80 1011.5
20260505053021 58 84 0.0 0.9 0.00 0.00 0.00 80 1011.6
20260505051536 58 83 0.0 0.0 0.00 0.00 0.00 80 1011.6
20260505041541 59 158 0.0 1.7 0.00 0.00 0.00 78 1011.3
20260505040026 60 118 0.0 1.7 0.00 0.00 0.00 77 1011.3
20260505034513 60 131 0.0 0.9 0.00 0.00 0.00 74 1011.3
20260505033014 60 176 0.9 4.3 0.00 0.00 0.00 73 1011.3
20260505031528 61 107 0.0 7.0 0.00 0.00 0.00 71 1011.4
20260505030022 61 146 0.0 2.6 0.00 0.00 0.00 70 1011.4
20260505024525 61 148 0.0 1.7 0.00 0.00 0.00 69 1011.3
20260505023010 61 89 0.0 3.5 0.00 0.00 0.00 70 1011.4
20260505021518 60 116 0.0 0.9 0.00 0.00 0.00 69 1011.4
20260505020020 61 114 0.0 2.6 0.00 0.00 0.00 68 1011.3
20260505014524 61 22 0.0 2.6 0.00 0.00 0.00 68 1011.3
20260505013025 62 128 0.0 1.7 0.00 0.00 0.00 66 1011.1
20260505011528 62 74 0.0 2.6 0.00 0.00 0.00 65 1010.9
20260505010020 62 136 0.0 1.7 0.00 0.00 0.00 63 1010.6
20260505004522 63 105 0.0 3.5 0.00 0.00 0.00 61 1010.7
20260505003004 63 133 0.0 5.2 0.00 0.00 0.00 60 1010.6
20260505001508 64 183 0.9 3.5 0.00 0.00 0.00 59 1010.5
20260505000015 64 104 0.0 2.6 0.00 0.00 0.00 58 1010.4
20260504234518 65 155 0.0 2.6 0.00 0.00 0.00 57 1010.6
20260504233026 66 112 0.0 5.2 0.00 0.00 0.00 53 1010.4
20260504231506 67 118 0.0 3.5 0.00 0.00 0.00 51 1010.4
20260504230028 68 205 0.9 1.7 0.00 0.00 0.00 49 1010.4
20260504224532 68 83 0.0 4.3 0.00 0.00 0.00 47 1010.4
20260504223023 69 174 1.7 7.0 0.00 0.00 0.00 46 1010.4
20260504221504 69 100 1.7 6.1 0.00 0.00 0.00 43 1010.3
20260504220008 70 156 1.7 8.7 0.00 0.00 0.00 43 1010.4
20260504214528 70 210 0.9 7.0 0.00 0.00 0.00 42 1010.4
20260504213023 71 145 1.7 6.1 0.00 0.00 0.00 41 1010.4
20260504211523 71 137 0.9 6.1 0.00 0.00 0.00 40 1010.5
20260504210027 71 91 1.7 5.2 0.00 0.00 0.00 40 1010.7
20260504204511 71 164 3.5 7.0 0.00 0.00 0.00 41 1010.9
20260504203017 71 211 0.9 4.3 0.00 0.00 0.00 41 1010.9
20260504201522 71 172 1.7 7.8 0.00 0.00 0.00 39 1011.1
20260504200024 71 226 1.7 5.2 0.00 0.00 0.00 39 1011.4
20260504194525 71 123 0.9 6.1 0.00 0.00 0.00 42 1011.6
20260504193011 70 163 2.6 11.3 0.00 0.00 0.00 40 1011.9
20260504191520 72 148 2.6 7.0 0.00 0.00 0.00 41 1012.1
20260504190021 72 154 1.7 7.8 0.00 0.00 0.00 38 1012.3
20260504184534 72 244 1.7 5.2 0.00 0.00 0.00 40 1012.5
20260504183033 72 172 2.6 7.0 0.00 0.00 0.00 39 1012.4
20260504181513 71 158 1.7 7.0 0.00 0.00 0.00 40 1012.5
20260504180020 72 242 2.6 6.1 0.00 0.00 0.00 39 1012.8
20260504174522 71 174 0.9 6.1 0.00 0.00 0.00 44 1013.0
20260504173025 72 195 0.9 4.3 0.00 0.00 0.00 42 1013.1
20260504171512 72 124 1.7 3.5 0.00 0.00 0.00 43 1013.2
20260504081535 35 155 0.0 0.0 0.00 0.00 0.00 15 1016.2